TimeMST,TemperatureF,Dew PointF,Humidity,Sea Level PressureIn,VisibilityMPH,Wind Direction,Wind SpeedMPH,Gust SpeedMPH,PrecipitationIn,Events,Conditions,WindDirDegrees,DateUTC
12:53 AM,51.1,39.9,66,29.97,10.0,SSW,6.9,-,N/A,,Clear,200,2012-11-18 07:53:00
1:53 AM,52.0,41.0,66,29.96,10.0,Variable,6.9,-,N/A,,Clear,0,2012-11-18 08:53:00
2:53 AM,52.0,41.0,66,29.96,10.0,SW,10.4,-,N/A,,Clear,220,2012-11-18 09:53:00
3:53 AM,51.1,41.0,68,29.95,10.0,SW,9.2,-,N/A,,Clear,220,2012-11-18 10:53:00
4:53 AM,50.0,39.0,66,29.96,10.0,SW,9.2,-,N/A,,Clear,230,2012-11-18 11:53:00
5:53 AM,52.0,36.0,54,29.97,10.0,WSW,9.2,-,N/A,,Clear,250,2012-11-18 12:53:00
6:53 AM,52.0,36.0,54,29.99,10.0,WSW,10.4,-,N/A,,Clear,240,2012-11-18 13:53:00
7:53 AM,53.1,35.1,50,29.98,10.0,SW,11.5,-,N/A,,Clear,230,2012-11-18 14:53:00
8:53 AM,57.0,33.1,40,29.99,10.0,NW,5.8,-,N/A,,Clear,310,2012-11-18 15:53:00
9:53 AM,62.1,34.0,35,29.99,10.0,SSW,10.4,16.1,N/A,,Overcast,210,2012-11-18 16:53:00
10:53 AM,66.0,34.0,30,29.96,10.0,SW,19.6,28.8,N/A,,Clear,220,2012-11-18 17:53:00
11:53 AM,66.0,36.0,33,29.95,10.0,SSW,24.2,28.8,N/A,,Clear,210,2012-11-18 18:53:00
12:53 PM,66.9,37.0,33,29.91,10.0,SSW,23.0,28.8,N/A,,Scattered Clouds,210,2012-11-18 19:53:00
1:53 PM,70.0,37.0,30,29.89,10.0,SW,21.9,29.9,N/A,,Clear,220,2012-11-18 20:53:00
2:53 PM,71.1,34.0,26,29.88,10.0,WSW,15.0,-,N/A,,Clear,250,2012-11-18 21:53:00
3:53 PM,66.0,42.1,42,29.91,10.0,SSW,24.2,29.9,N/A,,Clear,210,2012-11-18 22:53:00
4:53 PM,62.1,44.1,52,29.95,10.0,SSW,17.3,-,N/A,,Clear,210,2012-11-18 23:53:00
5:53 PM,57.9,44.1,60,29.97,10.0,SSW,16.1,-,N/A,,Clear,210,2012-11-19 00:53:00
6:53 PM,55.9,45.0,67,29.99,10.0,SSW,18.4,24.2,N/A,,Clear,210,2012-11-19 01:53:00
7:53 PM,54.0,46.0,75,30.00,10.0,SW,23.0,-,N/A,,Clear,220,2012-11-19 02:53:00
8:53 PM,53.1,45.0,74,30.00,10.0,SW,20.7,26.5,N/A,,Clear,220,2012-11-19 03:53:00
9:53 PM,50.0,43.0,77,30.01,10.0,WSW,12.7,-,N/A,,Clear,240,2012-11-19 04:53:00
10:53 PM,48.9,41.0,74,30.01,10.0,WSW,12.7,-,N/A,,Clear,250,2012-11-19 05:53:00
11:53 PM,48.9,36.0,61,30.01,10.0,West,10.4,-,N/A,,Clear,270,2012-11-19 06:53:00